Delmar, DE-Gumboro DE USA current weather conditions

sailwx.info

Wind from 332 at 2 knots gusting 4

Air temperature -4.8° C
Dewpoint -12.6° C

Last reported at 2019-Nov-13 09:00 UTC.
Time now 2019-Nov-13 09:42 UTC

Location: N 38°29' W 075°22'.
View on Google Maps.

See reports from other nearby stations

  
Tides and Currents Weather Stations Pressure Air Temp Water Temp Dewpoint Dewpoint Depression Visibility Wind Speed Wind Dir Waves Ship Positions
date/time (UTC)wind fromknots sea level pressurealtimeterstation pressurevisibilityair tempwater tempwave heightnotes
2019-Nov-13 09:00 332 2 gusting 4 -4.8
2019-Nov-13 08:55 327 2 gusting 4 -4.8
2019-Nov-13 08:50 328 2 gusting 4 -4.8
2019-Nov-13 08:45 328 3 gusting 5 -4.7
2019-Nov-13 08:40 317 2 gusting 3 -4.8
2019-Nov-13 08:35 327 1 gusting 3 -4.7
2019-Nov-13 08:30 325 1 gusting 2 -4.6
2019-Nov-13 08:25 317 2 gusting 4 -4.7
2019-Nov-13 08:20 320 1 gusting 3 -4.4
2019-Nov-13 08:15 332 2 gusting 3 -4.3
2019-Nov-13 08:10 336 2 gusting 3 -4.1
2019-Nov-13 08:05 332 3 gusting 6 -4.0
2019-Nov-13 08:00 337 3 gusting 5 -4.0
2019-Nov-13 07:55 346 3 gusting 6 -3.9
2019-Nov-13 07:50 338 4 gusting 7 -3.7
2019-Nov-13 07:45 343 4 gusting 7 -3.7
2019-Nov-13 07:40 342 4 gusting 6 -3.6
2019-Nov-13 07:35 337 4 gusting 8 -3.5
2019-Nov-13 07:30 337 5 gusting 9 -3.4
2019-Nov-13 07:25 339 5 gusting 8 -3.4
2019-Nov-13 07:20 337 5 gusting 8 -3.3
2019-Nov-13 07:15 345 5 gusting 9 -3.3
2019-Nov-13 07:10 356 5 gusting 10 -3.2
2019-Nov-13 07:05 345 6 gusting 10 -3.2
2019-Nov-13 07:00 344 6 gusting 10 -3.1
2019-Nov-13 06:55 349 5 gusting 10 -3.1
2019-Nov-13 06:50 344 5 gusting 8 -3.1
2019-Nov-13 06:45 335 6 gusting 9 -3.0
2019-Nov-13 06:40 345 6 gusting 10 -3.0
2019-Nov-13 06:35 342 5 gusting 8 -2.9
2019-Nov-13 06:30 345 6 gusting 11 -2.8
2019-Nov-13 06:25 346 5 gusting 8 -2.8
2019-Nov-13 06:20 341 5 gusting 10 -2.7
2019-Nov-13 06:15 342 6 gusting 9 -2.6
2019-Nov-13 06:10 346 6 gusting 8 -2.6
2019-Nov-13 06:05 339 6 gusting 9 -2.5
2019-Nov-13 06:00 335 6 gusting 10 -2.5
2019-Nov-13 05:55 335 5 gusting 8 -2.5
2019-Nov-13 05:50 336 5 gusting 7 -2.4
2019-Nov-13 05:45 336 5 gusting 9 -2.4
2019-Nov-13 05:40 339 5 gusting 8 -2.3
2019-Nov-13 05:35 338 5 gusting 10 -2.2
2019-Nov-13 05:30 339 6 gusting 11 -2.1
2019-Nov-13 05:25 335 6 gusting 9 -2.0
2019-Nov-13 05:20 339 5 gusting 8 -1.9
2019-Nov-13 05:15 336 7 gusting 15 -1.8
2019-Nov-13 05:10 331 6 gusting 8 -1.8
2019-Nov-13 05:05 334 5 gusting 8 -1.8
2019-Nov-13 05:00 332 4 gusting 8 -1.6
2019-Nov-13 04:55 334 6 gusting 10 -1.6
2019-Nov-13 04:50 335 6 gusting 10 -1.5
2019-Nov-13 04:45 335 6 gusting 10 -1.5
2019-Nov-13 04:40 338 6 gusting 9 -1.5
2019-Nov-13 04:35 347 6 gusting 10 -1.4
2019-Nov-13 04:30 349 6 gusting 11 -1.4
2019-Nov-13 04:25 338 6 gusting 10 -1.3
2019-Nov-13 04:20 340 7 gusting 10 -1.1
2019-Nov-13 04:15 348 5 gusting 9 -1.0
2019-Nov-13 04:10 358 7 gusting 12 -0.9
2019-Nov-13 04:05 350 6 gusting 11 -0.9
2019-Nov-13 04:00 355 7 gusting 13 -0.8
2019-Nov-13 03:55 341 7 gusting 11 -0.7
2019-Nov-13 03:50 351 7 gusting 12 -0.6
2019-Nov-13 03:45 350 7 gusting 11 -0.6
2019-Nov-13 03:40 352 7 gusting 13 -0.6
2019-Nov-13 03:35 001 8 gusting 12 -0.5
2019-Nov-13 03:30 355 7 gusting 14 -0.6
2019-Nov-13 03:25 001 7 gusting 12 -0.6
2019-Nov-13 03:20 -0.6
2019-Nov-13 03:15 359 6 gusting 9 -0.6
2019-Nov-13 03:10 350 5 gusting 7 -0.6
2019-Nov-13 03:05 350 6 gusting 9 -0.5
2019-Nov-13 03:00 350 4 gusting 8 -0.5
2019-Nov-13 02:55 343 4 gusting 7 -0.4
2019-Nov-13 02:50 336 5 gusting 7 -0.3
2019-Nov-13 02:45 331 6 gusting 11 -0.2
2019-Nov-13 02:40 339 6 gusting 8 -0.1
2019-Nov-13 02:35 338 6 gusting 9 -0.2
2019-Nov-13 02:30 341 5 gusting 8 -0.2
2019-Nov-13 02:25 344 5 gusting 8 -0.2
2019-Nov-13 02:20 338 5 gusting 9 -0.2
2019-Nov-13 02:15 333 7 gusting 11 -0.1
2019-Nov-13 02:10 332 6 gusting 10 -0.1
2019-Nov-13 02:05 340 5 gusting 7 -0.1
2019-Nov-13 02:00 348 5 gusting 8 0.0
2019-Nov-13 01:55 348 5 gusting 10 0.1
2019-Nov-13 01:50 345 6 gusting 10 0.1
2019-Nov-13 01:45 341 5 gusting 8 0.2
2019-Nov-13 01:40 351 6 gusting 10 0.2
2019-Nov-13 01:35 354 6 gusting 9 0.3
2019-Nov-13 01:30 354 7 gusting 14 0.4
2019-Nov-13 01:25 355 9 gusting 14 0.3
2019-Nov-13 01:20 352 6 gusting 12 0.2
2019-Nov-13 01:15 354 7 gusting 10 0.3
2019-Nov-13 01:10 359 6 gusting 11 0.3
2019-Nov-13 01:05 004 5 gusting 9 0.2
2019-Nov-13 01:00 011 5 gusting 8 0.3
2019-Nov-13 00:55 011 4 gusting 8 0.4
2019-Nov-13 00:50 002 5 gusting 10 0.4
2019-Nov-13 00:45 356 7 gusting 11 0.5
2019-Nov-13 00:40 355 7 gusting 13 0.6
2019-Nov-13 00:35 356 8 gusting 12 0.5
2019-Nov-13 00:30 360 7 gusting 11 0.5
2019-Nov-13 00:25 359 6 gusting 10 0.5
2019-Nov-13 00:20 001 5 gusting 8 0.4
2019-Nov-13 00:15 008 4 gusting 9 0.5
2019-Nov-13 00:10 009 3 gusting 5 0.5
2019-Nov-13 00:05 011 3 gusting 5 0.5
2019-Nov-13 00:00 007 4 gusting 6 0.6
2019-Nov-12 23:55 0.6
2019-Nov-12 23:50 358 4 gusting 7 0.7
2019-Nov-12 23:45 351 5 gusting 9 0.7
2019-Nov-12 23:40 360 5 gusting 8 0.7
2019-Nov-12 23:35 356 5 gusting 8 0.8
2019-Nov-12 23:30 355 5 gusting 10 0.8
2019-Nov-12 23:25 359 5 gusting 7 0.9
2019-Nov-12 23:20 350 5 gusting 7 0.9
2019-Nov-12 23:15 356 4 gusting 8 0.9
2019-Nov-12 23:10 356 5 gusting 8 1.0
2019-Nov-12 23:05 353 5 gusting 10 1.0
2019-Nov-12 23:00 1.1
2019-Nov-12 22:55 350 5 gusting 8 1.0
2019-Nov-12 22:50 357 5 gusting 9 1.0
2019-Nov-12 22:45 345 4 gusting 6 1.0
2019-Nov-12 22:40 350 4 gusting 8 1.0
2019-Nov-12 22:35 346 5 gusting 8 1.0
2019-Nov-12 22:30 342 5 gusting 7 1.0
2019-Nov-12 22:25 339 4 gusting 8 1.1
2019-Nov-12 22:20 340 5 gusting 9 1.1
2019-Nov-12 22:15 340 4 gusting 7 1.0
2019-Nov-12 22:10 343 5 gusting 9 1.0
2019-Nov-12 22:05 343 5 gusting 9 1.0
2019-Nov-12 22:00 343 5 gusting 7 0.8
2019-Nov-12 21:55 350 4 gusting 6 0.7
2019-Nov-12 21:50 340 3 gusting 6 0.5
2019-Nov-12 21:45 334 2 gusting 4 0.4
2019-Nov-12 21:40 341 2 gusting 3 0.4
2019-Nov-12 21:35 352 2 gusting 4 0.3
2019-Nov-12 21:30 359 3 gusting 5 0.3
2019-Nov-12 21:25 356 3 gusting 5 0.3
2019-Nov-12 21:20 345 3 gusting 5 0.2
2019-Nov-12 21:15 355 3 gusting 5 0.1
2019-Nov-12 21:10 339 3 gusting 5 0.1
2019-Nov-12 21:05 343 3 gusting 5 0.1
2019-Nov-12 21:00 005 3 gusting 7 0.1
2019-Nov-12 20:55 334 4 gusting 6 0.2
2019-Nov-12 20:50 331 3 gusting 6 0.2
2019-Nov-12 20:45 326 3 gusting 5 0.2
2019-Nov-12 20:40 335 4 gusting 7 0.2
2019-Nov-12 20:35 327 3 gusting 5 0.2
2019-Nov-12 20:30 326 4 gusting 6 0.2
2019-Nov-12 20:25 331 5 gusting 9 0.2
2019-Nov-12 20:20 323 5 gusting 8 0.2
2019-Nov-12 20:15 320 6 gusting 10 0.2
2019-Nov-12 20:10 329 6 gusting 10 0.2
2019-Nov-12 20:05 326 5 gusting 9 0.3
2019-Nov-12 20:00 326 6 gusting 9 0.3
2019-Nov-12 19:55 319 7 gusting 13 0.3
2019-Nov-12 19:50 330 8 gusting 13 0.3
2019-Nov-12 19:45 322 6 gusting 13 0.3
2019-Nov-12 19:40 318 5 gusting 10 0.3
2019-Nov-12 19:35 321 4 gusting 7 0.3
2019-Nov-12 19:30 319 5 gusting 9 0.3
2019-Nov-12 19:25 323 5 gusting 9 0.3
2019-Nov-12 19:20 327 5 gusting 9 0.3
2019-Nov-12 19:15 327 5 gusting 9 0.3
2019-Nov-12 19:10 325 5 gusting 8 0.4
2019-Nov-12 19:05 323 8 gusting 15 0.4
2019-Nov-12 19:00 317 6 gusting 10 0.4
2019-Nov-12 18:55 325 7 gusting 14 0.4
2019-Nov-12 18:50 336 6 gusting 10 0.4
2019-Nov-12 18:45 331 7 gusting 13 0.5
2019-Nov-12 18:40 331 7 gusting 13 0.6
2019-Nov-12 18:35 326 7 gusting 11 0.7
2019-Nov-12 18:30 324 6 gusting 13 0.8
2019-Nov-12 18:25 325 8 gusting 12 1.0
2019-Nov-12 18:20 329 11 gusting 17 1.3
2019-Nov-12 18:15 333 11 gusting 17 1.7
2019-Nov-12 18:10 333 13 gusting 20 2.0
2019-Nov-12 18:05 333 12 gusting 24 2.5
2019-Nov-12 18:00 326 11 gusting 21 2.6
2019-Nov-12 17:55 332 13 gusting 24 2.8
2019-Nov-12 17:50 334 13 gusting 24 3.0
2019-Nov-12 17:45 330 12 gusting 18 3.5
2019-Nov-12 17:40 324 10 gusting 17 3.8
2019-Nov-12 17:35 329 11 gusting 18 4.0
2019-Nov-12 17:30 323 10 gusting 16 4.3
2019-Nov-12 17:25 322 7 gusting 13 4.5
2019-Nov-12 17:20 326 9 gusting 14 4.6
2019-Nov-12 17:15 322 9 gusting 17 4.7
2019-Nov-12 17:10 318 11 gusting 17 4.8
2019-Nov-12 17:05 314 10 gusting 21 4.9
2019-Nov-12 17:00 317 10 gusting 19 4.9
2019-Nov-12 16:55 316 8 gusting 14 5.0
2019-Nov-12 16:50 312 9 gusting 16 5.1
2019-Nov-12 16:45 314 10 gusting 16 5.3
2019-Nov-12 16:40 310 8 gusting 18 5.5
2019-Nov-12 16:35 314 9 gusting 15 5.6
2019-Nov-12 16:30 315 10 gusting 17 5.8
2019-Nov-12 16:25 317 9 gusting 17 6.1
2019-Nov-12 16:20 318 10 gusting 18 6.4
2019-Nov-12 16:15 318 8 gusting 13 6.8
2019-Nov-12 16:10 313 7 gusting 12 7.0
2019-Nov-12 16:05 309 9 gusting 13 7.0
2019-Nov-12 16:00 315 9 gusting 16 7.1
2019-Nov-12 15:55 311 9 gusting 15 7.1
2019-Nov-12 15:50 308 7 gusting 15 7.3
2019-Nov-12 15:45 303 8 gusting 15 7.4
2019-Nov-12 15:40 307 8 gusting 15 7.5
2019-Nov-12 15:35 312 8 gusting 14 7.7
2019-Nov-12 15:30 309 9 gusting 17 8.0
2019-Nov-12 15:25 306 6 gusting 13 8.4
2019-Nov-12 15:20 316 6 gusting 10 8.4
2019-Nov-12 15:15 316 7 gusting 12 8.5
2019-Nov-12 15:10 320 9 gusting 14 8.7
2019-Nov-12 15:05 326 8 gusting 14 9.2
2019-Nov-12 15:00 311 10 gusting 18 9.6
2019-Nov-12 14:55 306 9 gusting 18 10.1
2019-Nov-12 14:50 301 6 gusting 18 10.8
2019-Nov-12 14:45 303 3 gusting 7 11.0
2019-Nov-12 14:40 299 4 gusting 8 11.2
2019-Nov-12 14:35 312 4 gusting 8 11.3
2019-Nov-12 14:30 302 3 gusting 5 11.4
2019-Nov-12 14:25 291 4 gusting 9 11.6
2019-Nov-12 14:20 302 6 gusting 14 11.8
2019-Nov-12 14:15 285 5 gusting 11 12.3
2019-Nov-12 14:10 278 6 gusting 10 12.5
2019-Nov-12 14:05 270 5 gusting 10 12.6
2019-Nov-12 14:00 268 6 gusting 9 12.7
2019-Nov-12 13:55 265 5 gusting 9 12.8
2019-Nov-12 13:50 264 5 gusting 10 12.9
2019-Nov-12 13:45 252 5 gusting 9 13.0
2019-Nov-12 13:40 249 4 gusting 6 13.1
2019-Nov-12 13:35 256 4 gusting 6 13.2
2019-Nov-12 13:30 247 4 gusting 7 13.3
2019-Nov-12 13:25 248 4 gusting 9 13.4
2019-Nov-12 13:20 240 4 gusting 7 13.5
2019-Nov-12 13:15 241 4 gusting 7 13.5
2019-Nov-12 13:10 244 4 gusting 9 13.5
2019-Nov-12 13:05 233 4 gusting 6 13.6
2019-Nov-12 13:00 232 4 gusting 7 13.7
2019-Nov-12 12:55 235 5 gusting 12 13.8
2019-Nov-12 12:50 238 4 gusting 7 13.9
2019-Nov-12 12:45 238 5 gusting 9 14.1
2019-Nov-12 12:40 230 5 gusting 9 14.2
2019-Nov-12 12:35 239 5 gusting 9 14.2
2019-Nov-12 12:30 240 6 gusting 11 14.2
2019-Nov-12 12:25 233 5 gusting 8 14.2
2019-Nov-12 12:20 240 4 gusting 8 14.2
2019-Nov-12 12:15 235 5 gusting 8 14.2
2019-Nov-12 12:10 229 4 gusting 7 14.1
2019-Nov-12 12:05 221 4 gusting 7 14.2
2019-Nov-12 12:00 222 4 gusting 6 14.2
2019-Nov-12 11:55 229 4 gusting 6 14.2
2019-Nov-12 11:50 223 5 gusting 8 14.2
2019-Nov-12 11:45 220 4 gusting 6 14.2
2019-Nov-12 11:40 222 5 gusting 8 14.2
2019-Nov-12 11:35 217 5 gusting 8 14.2
2019-Nov-12 11:30 221 4 gusting 7 14.1
2019-Nov-12 11:25 216 5 gusting 8 14.3
2019-Nov-12 11:20 215 6 gusting 10 14.2
2019-Nov-12 11:15 222 5 gusting 8 14.4
2019-Nov-12 11:10 224 5 gusting 9 14.3
2019-Nov-12 11:05 222 5 gusting 8 14.3
2019-Nov-12 11:00 224 5 gusting 9 14.4
2019-Nov-12 10:55 221 6 gusting 11 14.5
2019-Nov-12 10:50 223 6 gusting 12 14.4
2019-Nov-12 10:45 218 6 gusting 10 14.3
2019-Nov-12 10:40 218 5 gusting 10 14.4
2019-Nov-12 10:35 221 6 gusting 9 14.5
2019-Nov-12 10:30 229 6 gusting 8 14.5
2019-Nov-12 10:25 227 6 gusting 11 14.5
2019-Nov-12 10:20 224 6 gusting 10 14.6
2019-Nov-12 10:15 224 6 gusting 12 14.6
2019-Nov-12 10:10 228 7 gusting 10 14.7
2019-Nov-12 10:05 224 7 gusting 13 14.7
2019-Nov-12 10:00 227 6 gusting 13 14.8
2019-Nov-12 09:55 222 8 gusting 12 14.7
2019-Nov-12 09:50 224 6 gusting 8 14.6
2019-Nov-12 09:45 222 6 gusting 9 14.7
2019-Nov-12 09:40 222 7 gusting 11 14.9
2019-Nov-12 09:35 218 8 gusting 15 14.9
2019-Nov-12 09:30 224 7 gusting 12 14.9
2019-Nov-12 09:25 220 7 gusting 13 15.0
2019-Nov-12 09:20 223 8 gusting 15 15.1
2019-Nov-12 09:15 221 7 gusting 11 15.1
2019-Nov-12 09:10 222 8 gusting 11 15.2
2019-Nov-12 09:05 217 9 gusting 15 15.1
2019-Nov-12 09:00 220 8 gusting 13 15.2
2019-Nov-12 08:55 213 8 gusting 13 15.1
2019-Nov-12 08:50 216 7 gusting 12 15.1
2019-Nov-12 08:45 220 8 gusting 13 15.0
2019-Nov-12 08:40 215 6 gusting 10 14.9
2019-Nov-12 08:35 214 7 gusting 12 14.9
2019-Nov-12 08:30 211 7 gusting 10 14.8
2019-Nov-12 08:25 210 7 gusting 12 14.7
2019-Nov-12 08:20 212 6 gusting 10 14.6
2019-Nov-12 08:15 211 7 gusting 13 14.6
2019-Nov-12 08:10 219 8 gusting 11 14.6
2019-Nov-12 08:05 210 8 gusting 14 14.5
2019-Nov-12 08:00 208 6 gusting 9 14.3
2019-Nov-12 07:55 208 7 gusting 10 14.4
2019-Nov-12 07:50 213 7 gusting 11 14.3
2019-Nov-12 07:45 211 7 gusting 12 14.3
2019-Nov-12 07:40 210 6 gusting 10 14.2
2019-Nov-12 07:35 209 7 gusting 12 14.3
2019-Nov-12 07:30 211 7 gusting 14 14.3
2019-Nov-12 07:25 210 8 gusting 12 14.4
2019-Nov-12 07:20 208 7 gusting 13 14.3
2019-Nov-12 07:15 205 7 gusting 14 14.2
2019-Nov-12 07:10 208 7 gusting 9 14.2
2019-Nov-12 07:05 206 7 gusting 11 14.2
2019-Nov-12 07:00 201 7 gusting 11 14.2
2019-Nov-12 06:55 203 7 gusting 11 14.2
2019-Nov-12 06:50 203 8 gusting 14 14.3
2019-Nov-12 06:45 204 7 gusting 12 14.3
2019-Nov-12 06:40 199 7 gusting 12 14.3
2019-Nov-12 06:35 205 7 gusting 10 14.4
2019-Nov-12 06:30 199 7 gusting 14 14.5
2019-Nov-12 06:25 204 7 gusting 11 14.6
2019-Nov-12 06:20 202 8 gusting 13 14.6
2019-Nov-12 06:15 205 7 gusting 11 14.6
2019-Nov-12 06:10 205 8 gusting 13 14.7
2019-Nov-12 06:05 208 7 gusting 14 14.8
2019-Nov-12 06:00 208 8 gusting 12 14.8
2019-Nov-12 05:55 204 8 gusting 13 14.8
2019-Nov-12 05:50 207 7 gusting 11 14.9
2019-Nov-12 05:45 211 7 gusting 10 14.9
2019-Nov-12 05:40 209 7 gusting 11 14.9
2019-Nov-12 05:35 210 7 gusting 10 14.9
2019-Nov-12 05:30 209 6 gusting 10 14.9
2019-Nov-12 05:25 210 6 gusting 10 14.9
2019-Nov-12 05:20 208 5 gusting 11 14.7
2019-Nov-12 05:15 219 4 gusting 7 14.7
2019-Nov-12 05:10 216 5 gusting 7 14.9
2019-Nov-12 05:05 209 6 gusting 10 14.9
2019-Nov-12 05:00 203 6 gusting 10 14.9
2019-Nov-12 04:55 206 7 gusting 10 14.8
2019-Nov-12 04:50 204 7 gusting 12 14.9
2019-Nov-12 04:45 207 7 gusting 13 14.7
2019-Nov-12 04:40 203 7 gusting 12 14.7
2019-Nov-12 04:35 203 7 gusting 10 14.6
2019-Nov-12 04:30 198 7 gusting 10 14.6
2019-Nov-12 04:25 201 7 gusting 11 14.6
2019-Nov-12 04:20 200 7 gusting 12 14.4
2019-Nov-12 04:15 197 6 gusting 10 14.4
2019-Nov-12 04:10 202 6 gusting 9 14.3
2019-Nov-12 04:05 195 5 gusting 10 14.2
2019-Nov-12 04:00 192 6 gusting 9 14.1
2019-Nov-12 03:55 197 5 gusting 7 13.7
2019-Nov-12 03:50 196 3 gusting 6 13.5
2019-Nov-12 03:45 191 4 gusting 6 13.5
2019-Nov-12 03:40 186 3 gusting 6 13.3
2019-Nov-12 03:35 192 4 gusting 7 13.5
2019-Nov-12 03:30 194 3 gusting 4 13.5
2019-Nov-12 03:25 197 4 gusting 7 13.4
2019-Nov-12 03:20 189 4 gusting 6 13.3
2019-Nov-12 03:15 194 4 gusting 6 13.4
2019-Nov-12 03:10 197 4 gusting 7 13.4
2019-Nov-12 03:05 194 4 gusting 7 13.1
2019-Nov-12 03:00 191 4 gusting 7 13.2
2019-Nov-12 02:55 188 4 gusting 5 13.2
2019-Nov-12 02:50 191 5 gusting 8 13.2
2019-Nov-12 02:45 191 5 gusting 8 13.2
2019-Nov-12 02:40 192 5 gusting 8 13.2
2019-Nov-12 02:35 193 5 gusting 8 13.0
2019-Nov-12 02:30 192 5 gusting 7 13.0
2019-Nov-12 02:25 191 4 gusting 9 12.9
2019-Nov-12 02:20 188 5 gusting 8 12.9
2019-Nov-12 02:15 183 6 gusting 8 13.0
2019-Nov-12 02:10 186 5 gusting 8 12.9
2019-Nov-12 02:05 181 5 gusting 7 12.8
2019-Nov-12 02:00 194 4 gusting 7 12.6
2019-Nov-12 01:55 195 4 gusting 6 12.6
2019-Nov-12 01:50 193 3 gusting 5 12.6
2019-Nov-12 01:45 201 4 gusting 6 12.8
2019-Nov-12 01:40 201 4 gusting 5 12.9
2019-Nov-12 01:35 205 4 gusting 6 13.0
2019-Nov-12 01:30 205 4 gusting 6 13.0
2019-Nov-12 01:25 207 4 gusting 8 13.0
2019-Nov-12 01:20 209 4 gusting 7 13.1
2019-Nov-12 01:15 204 5 gusting 8 13.1
2019-Nov-12 01:10 204 5 gusting 8 13.2
2019-Nov-12 01:05 199 6 gusting 9 13.1
2019-Nov-12 01:00 194 6 gusting 9 13.0
2019-Nov-12 00:55 187 6 gusting 10 13.0
2019-Nov-12 00:50 182 6 gusting 8 12.9
2019-Nov-12 00:45 179 5 gusting 8 13.1
2019-Nov-12 00:40 183 6 gusting 8 13.1
2019-Nov-12 00:35 184 5 gusting 9 13.1
2019-Nov-12 00:30 188 6 gusting 9 13.1
2019-Nov-12 00:25 184 6 gusting 8 12.9
2019-Nov-12 00:20 176 5 gusting 8 12.7
2019-Nov-12 00:15 176 5 gusting 8 12.9
2019-Nov-12 00:10 171 6 gusting 9 12.9
2019-Nov-12 00:05 170 6 gusting 9 12.9
2019-Nov-12 00:00 170 6 gusting 10 12.9
2019-Nov-11 23:55 168 6 gusting 8 12.9
2019-Nov-11 23:50 169 6 gusting 9 13.0
2019-Nov-11 23:45 170 6 gusting 8 13.0
2019-Nov-11 23:40 166 6 gusting 9 12.9
2019-Nov-11 23:35 169 5 gusting 7 12.9
2019-Nov-11 23:30 168 5 gusting 8 13.1
2019-Nov-11 23:25 165 5 gusting 7 13.2
2019-Nov-11 23:20 164 5 gusting 7 13.2
2019-Nov-11 23:15 166 4 gusting 6 13.3
2019-Nov-11 23:10 166 5 gusting 6 13.4
2019-Nov-11 23:05 169 5 gusting 8 13.4
2019-Nov-11 23:00 168 5 gusting 6 13.4
2019-Nov-11 22:55 165 4 gusting 6 13.5
2019-Nov-11 22:50 169 5 gusting 6 13.6
2019-Nov-11 22:45 163 4 gusting 6 13.6
2019-Nov-11 22:40 170 3 gusting 5 13.8
2019-Nov-11 22:35 169 4 gusting 5 14.0
2019-Nov-11 22:30 166 4 gusting 6 14.3
2019-Nov-11 22:25 163 4 gusting 7 14.4
2019-Nov-11 22:20 167 5 gusting 7 14.7
2019-Nov-11 22:15 161 5 gusting 8 14.7
2019-Nov-11 22:10 159 3 gusting 7 15.0
2019-Nov-11 22:05 164 5 gusting 7 15.2
2019-Nov-11 22:00 162 5 gusting 7 15.3
2019-Nov-11 21:55 169 4 gusting 5 15.5
2019-Nov-11 21:50 174 4 gusting 6 15.9
2019-Nov-11 21:45 165 6 gusting 10 16.3
2019-Nov-11 21:40 173 5 gusting 8 16.5
2019-Nov-11 21:35 184 5 gusting 7 16.7
2019-Nov-11 21:30 194 3 gusting 5 17.0
2019-Nov-11 21:25 199 3 gusting 5 17.3
2019-Nov-11 21:20 203 3 gusting 6 17.5
2019-Nov-11 21:15 206 4 gusting 7 17.7
2019-Nov-11 21:10 198 4 gusting 8 17.9
2019-Nov-11 21:05 202 5 gusting 10 18.1
2019-Nov-11 21:00 190 7 gusting 12 18.5
2019-Nov-11 20:55 195 6 gusting 10 18.8
2019-Nov-11 20:50 195 6 gusting 10 18.9
2019-Nov-11 20:45 200 7 gusting 12 19.0
2019-Nov-11 20:40 182 6 gusting 9 19.3
2019-Nov-11 20:35 191 5 gusting 7 19.4
2019-Nov-11 20:30 190 5 gusting 8 19.4
2019-Nov-11 20:25 189 6 gusting 9 19.4
2019-Nov-11 20:20 200 6 gusting 8 19.4
2019-Nov-11 20:15 213 6 gusting 10 19.6
2019-Nov-11 20:10 201 5 gusting 8 19.8
2019-Nov-11 20:05 182 7 gusting 10 19.7
2019-Nov-11 20:00 178 7 gusting 9 19.4
2019-Nov-11 19:55 186 7 gusting 11 19.4
2019-Nov-11 19:50 186 8 gusting 13 19.7
2019-Nov-11 19:45 184 7 gusting 10 19.9
2019-Nov-11 19:40 183 7 gusting 12 20.0
2019-Nov-11 19:35 179 6 gusting 12 20.3
2019-Nov-11 19:30 178 5 gusting 8 19.8
2019-Nov-11 19:25 175 4 gusting 7 19.7
2019-Nov-11 19:20 188 6 gusting 9 19.6
2019-Nov-11 19:15 199 7 gusting 10 19.6
2019-Nov-11 19:10 195 5 gusting 8 19.8
2019-Nov-11 19:05 176 5 gusting 7 19.7
2019-Nov-11 19:00 185 7 gusting 10 19.6
2019-Nov-11 18:55 184 5 gusting 9 19.8
2019-Nov-11 18:50 171 5 gusting 8 19.8
2019-Nov-11 18:45 189 6 gusting 9 19.9
2019-Nov-11 18:40 174 5 gusting 7 19.8
2019-Nov-11 18:35 164 4 gusting 8 19.7
2019-Nov-11 18:30 177 5 gusting 8 19.7
2019-Nov-11 18:25 187 5 gusting 7 19.9
2019-Nov-11 18:20 178 4 gusting 8 19.7
2019-Nov-11 18:15 191 3 gusting 4 19.5
2019-Nov-11 18:10 187 4 gusting 6 19.5
2019-Nov-11 18:05 178 5 gusting 7 19.4
2019-Nov-11 18:00 169 3 gusting 7 19.4
2019-Nov-11 17:55 178 2 gusting 6 19.5
2019-Nov-11 17:50 188 1 gusting 4 19.2
2019-Nov-11 17:45 185 2 gusting 5 19.0
2019-Nov-11 17:40 182 3 gusting 5 18.8
2019-Nov-11 17:35 185 3 gusting 6 18.5
2019-Nov-11 17:30 182 3 gusting 4 18.2
2019-Nov-11 17:25 194 3 gusting 5 18.2
2019-Nov-11 17:20 180 3 gusting 5 17.9
2019-Nov-11 17:15 145 2 gusting 5 18.1
2019-Nov-11 17:10 168 3 gusting 4 17.9
2019-Nov-11 17:05 163 3 gusting 5 17.9
2019-Nov-11 17:00 191 2 gusting 5 17.7
2019-Nov-11 16:55 195 3 gusting 6 17.8
2019-Nov-11 16:50 190 2 gusting 5 17.6
2019-Nov-11 16:45 249 2 gusting 4 17.6
2019-Nov-11 16:40 213 2 gusting 4 17.6
2019-Nov-11 16:35 228 2 gusting 4 17.2
2019-Nov-11 16:30 229 2 gusting 4 16.8
2019-Nov-11 16:25 234 2 gusting 4 16.8
2019-Nov-11 16:20 181 2 gusting 4 16.8
2019-Nov-11 16:15 191 3 gusting 5 16.6
2019-Nov-11 16:10 194 3 gusting 5 16.5
2019-Nov-11 16:05 210 2 gusting 5 16.5
2019-Nov-11 16:00 241 3 gusting 6 16.2
2019-Nov-11 15:55 239 4 gusting 7 16.0
2019-Nov-11 15:50 219 3 gusting 5 15.7
2019-Nov-11 15:45 189 5 gusting 7 15.8
2019-Nov-11 15:40 184 4 gusting 6 15.5
2019-Nov-11 15:35 215 3 gusting 5 15.5
2019-Nov-11 15:30 231 3 gusting 5 15.1
2019-Nov-11 15:25 208 4 gusting 6 14.8
2019-Nov-11 15:20 205 4 gusting 5 14.7
2019-Nov-11 15:15 215 4 gusting 6 14.7
2019-Nov-11 15:10 226 3 gusting 5 14.6
2019-Nov-11 15:05 244 3 gusting 5 14.4
2019-Nov-11 15:00 238 3 gusting 5 14.2
2019-Nov-11 14:55 213 4 gusting 7 14.2
2019-Nov-11 14:50 220 4 gusting 7 14.0
2019-Nov-11 14:45 231 3 gusting 6 13.7
2019-Nov-11 14:40 220 4 gusting 5 13.5
2019-Nov-11 14:35 241 3 gusting 6 13.3
2019-Nov-11 14:30 236 3 gusting 5 13.1
2019-Nov-11 14:25 228 4 gusting 5 12.9
2019-Nov-11 14:20 234 4 gusting 7 12.7
2019-Nov-11 14:15 230 4 gusting 7 12.8
2019-Nov-11 14:10 235 4 gusting 6 12.4
2019-Nov-11 14:05 226 4 gusting 6 12.2
2019-Nov-11 14:00 224 3 gusting 5 12.0
2019-Nov-11 13:55 212 4 gusting 6 11.8
2019-Nov-11 13:50 214 3 gusting 6 11.7
2019-Nov-11 13:45 229 3 gusting 5 11.3
2019-Nov-11 13:40 212 4 gusting 6 11.0
2019-Nov-11 13:35 212 5 gusting 7 10.7
2019-Nov-11 13:30 215 4 gusting 6 10.4
2019-Nov-11 13:25 213 4 gusting 7 10.1
2019-Nov-11 13:20 214 4 gusting 6 9.8
2019-Nov-11 13:15 209 3 gusting 5 9.6
2019-Nov-11 13:10 211 3 gusting 5 9.3
2019-Nov-11 13:05 203 3 gusting 5 9.0
2019-Nov-11 13:00 196 3 gusting 5 8.7
2019-Nov-11 12:55 197 3 gusting 5 8.4
2019-Nov-11 12:50 191 2 gusting 3 8.1
2019-Nov-11 12:45 186 2 gusting 3 7.8
2019-Nov-11 12:40 178 1 gusting 2 7.3
2019-Nov-11 12:35 185 0 gusting 1 6.5
2019-Nov-11 12:30 192 1 gusting 1 5.9
2019-Nov-11 12:25 190 0 gusting 1 6.0
2019-Nov-11 12:20 5.8
2019-Nov-11 12:15 195 0 gusting 0 5.2
2019-Nov-11 12:10 195 0 gusting 0 4.9
2019-Nov-11 12:05 195 0 gusting 0 4.5
2019-Nov-11 12:00 195 0 gusting 1 4.5
2019-Nov-11 11:55 195 0 gusting 1 4.7
2019-Nov-11 11:50 195 0 gusting 1 4.9
2019-Nov-11 11:45 196 0 gusting 0 5.0
2019-Nov-11 11:40 5.0
2019-Nov-11 11:35 195 0 gusting 0 5.0
2019-Nov-11 11:30 5.0
2019-Nov-11 11:25 5.0
2019-Nov-11 11:20 5.3
2019-Nov-11 11:15 196 0 gusting 1 5.4
2019-Nov-11 11:10 208 1 gusting 2 5.4
2019-Nov-11 11:05 212 0 gusting 1 5.6
2019-Nov-11 11:00 206 1 gusting 2 5.9
2019-Nov-11 10:55 216 1 gusting 2 6.3
2019-Nov-11 10:50 218 1 gusting 2 6.1
2019-Nov-11 10:45 211 1 gusting 1 6.2
2019-Nov-11 10:40 202 1 gusting 2 6.4
2019-Nov-11 10:35 211 1 gusting 2 6.4
2019-Nov-11 10:30 202 1 gusting 1 6.4
2019-Nov-11 10:25 197 1 gusting 2 6.5
2019-Nov-11 10:20 188 1 gusting 2 6.6
2019-Nov-11 10:15 195 1 gusting 2 6.4
2019-Nov-11 10:10 196 1 gusting 2 6.4
2019-Nov-11 10:05 196 1 gusting 2 6.3
2019-Nov-11 10:00 203 1 gusting 1 6.0
2019-Nov-11 09:55 199 1 gusting 2 6.0
2019-Nov-11 09:50 191 0 gusting 0 6.3
2019-Nov-11 09:45 196 0 gusting 1 6.6
2019-Nov-11 09:40 198 1 gusting 2 6.6
2019-Nov-11 09:35 199 1 gusting 3 6.6
2019-Nov-11 09:30 198 1 gusting 2 6.7
2019-Nov-11 09:25 195 1 gusting 3 6.8
2019-Nov-11 09:20 192 2 gusting 3 6.6
2019-Nov-11 09:15 186 2 gusting 3 6.5
2019-Nov-11 09:10 185 2 gusting 3 6.5
2019-Nov-11 09:05 185 2 gusting 3 6.6
2019-Nov-11 09:00 191 2 gusting 2 6.6